This is the latest recevied weather packets stored in our database for station/object N6WDO. If no packets are shown the sender has not sent any weather packets the latest 10 day(s).
| Time | Temp. | Humidity | Pressure | Rain* | Wind** | Luminosity | Snow |
|---|---|---|---|---|---|---|---|
| 1777613792 | 13.89° C | 82% | 1014.9 hPa | 0 mm | - | 0 W/m² | - |
| 1777613490 | 13.89° C | 82% | 1015.2 hPa | 0 mm | - | 0 W/m² | - |
| 1777613186 | 13.89° C | 81% | 1015.1 hPa | 0 mm | - | 0 W/m² | - |
| 1777612883 | 13.89° C | 82% | 1015 hPa | 0 mm | - | 0 W/m² | - |
| 1777612579 | 14.44° C | 82% | 1014.8 hPa | 0 mm | - | 0 W/m² | - |
| 1777612275 | 14.44° C | 81% | 1014.9 hPa | 0 mm | - | 0 W/m² | - |
| 1777611970 | 14.44° C | 82% | 1014.9 hPa | 0 mm | - | 0 W/m² | - |
| 1777611666 | 14.44° C | 82% | 1015 hPa | 0 mm | - | 0 W/m² | - |
| 1777611361 | 14.44° C | 80% | 1014.9 hPa | 0 mm | - | 0 W/m² | - |
| 1777611060 | 14.44° C | 81% | 1015 hPa | 0 mm | - | 0 W/m² | - |
| 1777610760 | 14.44° C | 81% | 1014.8 hPa | 0 mm | - | 0 W/m² | - |
| 1777610454 | 14.44° C | 81% | 1014.8 hPa | 0 mm | - | 0 W/m² | - |
| 1777610150 | 15° C | 78% | 1014.9 hPa | 0 mm | - | 0 W/m² | - |
| 1777609847 | 15° C | 78% | 1014.7 hPa | 0 mm | - | 0 W/m² | - |
| 1777609543 | 15° C | 77% | 1014.7 hPa | 0 mm | - | 0 W/m² | - |
| 1777609240 | 15° C | 78% | 1014.5 hPa | 0 mm | - | 0 W/m² | - |
| 1777608933 | 15° C | 76% | 1014.8 hPa | 0 mm | - | 0 W/m² | - |
| 1777608629 | 15.56° C | 76% | 1014.7 hPa | 0 mm | - | 0 W/m² | - |
| 1777608326 | 15° C | 77% | 1014.4 hPa | 0 mm | - | 0 W/m² | - |
| 1777608025 | 15.56° C | 77% | 1014.5 hPa | 0 mm | - | 0 W/m² | - |
| 1777607720 | 15.56° C | 74% | 1014.5 hPa | 0 mm | - | 0 W/m² | - |
| 1777607416 | 16.11° C | 73% | 1014.3 hPa | 0 mm | - | 0 W/m² | - |
| 1777607113 | 16.11° C | 72% | 1014.4 hPa | 0 mm | - | 0 W/m² | - |
| 1777606809 | 16.11° C | 74% | 1014.3 hPa | 0 mm | - | 0 W/m² | - |
| 1777606504 | 15.56° C | 74% | 1014.4 hPa | 0 mm | - | 0 W/m² | - |
* Rain latest hour (hover to see other rain measurements)
** Current wind speed in m/s (hover to see current wind gust speed)